Location: Unspecified
(0.0000°N, 0.0000°E)
Time: 19:05:01
(UTC+00:00)

MetOp-A - Pass Details

Date: 02 August 2021
Orbit: 819 x 821 km, 98.5° (Epoch: 26 September)

Event Time Altitude Azimuth Distance (km) Brightness Sun altitude
Exits shadow 20:15:09 64° 267° (W) 903 4.4 -30.6°
Drops below altitude 10° 20:20:17 10° 339° (NNW) 2,407 7.0 -31.8°
Sets 20:22:38 0° 342° (NNW) 3,337 7.8 -32.3°
